This is the latest recevied weather packets stored in our database for station/object WA3NOA-2. If no packets are shown the sender has not sent any weather packets the latest 10 day(s).
| Time | Temp. | Humidity | Pressure | Rain* | Wind** | Luminosity | Snow |
|---|---|---|---|---|---|---|---|
| 1778173627 | 16.11° C | 54% | 1003.7 hPa | 0 mm | - | - | - |
| 1778173388 | 16.11° C | 50% | 1003.8 hPa | 0 mm | - | - | - |
| 1778173327 | 16.11° C | 51% | 1003.8 hPa | 0 mm | - | - | - |
| 1778173027 | 15.56° C | 49% | 1003.9 hPa | 0 mm | - | - | - |
| 1778172727 | 15.56° C | 52% | 1003.9 hPa | 0 mm | - | - | - |
| 1778172488 | 15.56° C | 54% | 1004 hPa | 0 mm | - | - | - |
| 1778172427 | 15.56° C | 53% | 1004.2 hPa | 0 mm | - | - | - |
| 1778172127 | 15.56° C | 50% | 1004.2 hPa | 0 mm | - | - | - |
| 1778171827 | 15.56° C | 50% | 1004.3 hPa | 0 mm | - | - | - |
| 1778171588 | 15° C | 51% | 1004.4 hPa | 0 mm | - | - | - |
| 1778171527 | 15° C | 50% | 1004.4 hPa | 0 mm | - | - | - |
| 1778171227 | 15° C | 55% | 1004.4 hPa | 0 mm | - | - | - |
| 1778170927 | 15° C | 51% | 1004.3 hPa | 0 mm | - | - | - |
| 1778170688 | 15° C | 53% | 1004.6 hPa | 0 mm | - | - | - |
| 1778170627 | 15° C | 50% | 1004.6 hPa | 0 mm | - | - | - |
| 1778170327 | 15° C | 53% | 1004.5 hPa | 0 mm | - | - | - |
| 1778170027 | 15° C | 52% | 1004.6 hPa | 0 mm | - | - | - |
| 1778169788 | 15° C | 55% | 1004.5 hPa | 0 mm | - | - | - |
| 1778169727 | 15° C | 54% | 1004.6 hPa | 0 mm | - | - | - |
| 1778169427 | 15° C | 51% | 1004.6 hPa | 0 mm | - | - | - |
| 1778169127 | 15.56° C | 54% | 1004.7 hPa | 0 mm | - | - | - |
| 1778168889 | 15° C | 54% | 1004.7 hPa | 0.25 mm | - | - | - |
| 1778168827 | 15° C | 54% | 1004.6 hPa | 0.25 mm | - | - | - |
| 1778168527 | 15° C | 56% | 1004.7 hPa | 0.25 mm | - | - | - |
| 1778168227 | 15° C | 56% | 1004.6 hPa | 0.25 mm | - | - | - |
* Rain latest hour (hover to see other rain measurements)
** Current wind speed in m/s (hover to see current wind gust speed)